TimeEDT,TemperatureF,Dew PointF,Humidity,Sea Level PressureIn,VisibilityMPH,Wind Direction,Wind SpeedMPH,Gust SpeedMPH,PrecipitationIn,Events,Conditions,WindDirDegrees,DateUTC
12:44 AM,73.4,69.8,88,30.00,10.0,SSE,6.9,-,N/A,,Mostly Cloudy,150,2013-05-22 04:44:00
12:51 AM,73.4,69.8,88,30.00,10.0,SSE,5.8,-,N/A,,Scattered Clouds,160,2013-05-22 04:51:00
12:53 AM,73.9,70.0,87,30.00,10.0,SSE,5.8,-,N/A,,Scattered Clouds,150,2013-05-22 04:53:00
1:53 AM,73.0,69.1,87,29.99,10.0,SSE,4.6,-,N/A,,Clear,150,2013-05-22 05:53:00
2:53 AM,73.0,69.1,87,29.99,10.0,Calm,Calm,-,N/A,,Partly Cloudy,0,2013-05-22 06:53:00
3:53 AM,71.1,68.0,90,29.98,10.0,Calm,Calm,-,N/A,,Mostly Cloudy,0,2013-05-22 07:53:00
4:03 AM,71.6,68.0,88,29.98,10.0,Calm,Calm,-,N/A,,Scattered Clouds,0,2013-05-22 08:03:00
4:53 AM,71.1,66.9,87,29.97,10.0,Calm,Calm,-,N/A,,Clear,0,2013-05-22 08:53:00
5:53 AM,69.1,68.0,96,29.98,10.0,Calm,Calm,-,N/A,,Clear,0,2013-05-22 09:53:00
6:53 AM,70.0,68.0,93,29.99,8.0,Calm,Calm,-,N/A,,Clear,0,2013-05-22 10:53:00
7:53 AM,75.0,71.1,87,30.00,10.0,ESE,3.5,-,N/A,,Clear,120,2013-05-22 11:53:00
8:04 AM,75.2,71.6,89,30.00,10.0,ESE,4.6,-,N/A,,Partly Cloudy,110,2013-05-22 12:04:00
8:53 AM,77.0,69.1,76,30.01,10.0,Calm,Calm,-,N/A,,Partly Cloudy,0,2013-05-22 12:53:00
9:18 AM,78.8,69.8,74,30.01,10.0,Calm,Calm,-,N/A,,Mostly Cloudy,0,2013-05-22 13:18:00
9:53 AM,80.1,69.1,69,30.01,10.0,ESE,8.1,-,N/A,,Mostly Cloudy,120,2013-05-22 13:53:00
10:09 AM,78.8,69.8,74,30.01,10.0,ESE,6.9,-,N/A,,Scattered Clouds,120,2013-05-22 14:09:00
10:53 AM,79.0,70.0,74,30.02,10.0,ESE,8.1,-,N/A,,Partly Cloudy,110,2013-05-22 14:53:00
11:53 AM,81.0,69.1,67,30.02,10.0,East,9.2,-,N/A,,Partly Cloudy,90,2013-05-22 15:53:00
12:53 PM,82.0,70.0,67,30.02,10.0,SE,11.5,-,N/A,,Mostly Cloudy,130,2013-05-22 16:53:00
1:53 PM,81.0,69.1,67,30.01,10.0,East,10.4,-,N/A,,Clear,100,2013-05-22 17:53:00
2:53 PM,80.1,68.0,67,30.00,10.0,East,6.9,-,N/A,,Scattered Clouds,100,2013-05-22 18:53:00
3:53 PM,79.0,68.0,69,29.97,10.0,ESE,10.4,-,N/A,,Overcast,120,2013-05-22 19:53:00
4:53 PM,78.1,68.0,71,29.96,10.0,East,9.2,-,N/A,,Overcast,100,2013-05-22 20:53:00
5:53 PM,80.1,69.1,69,29.95,10.0,East,11.5,-,N/A,,Mostly Cloudy,100,2013-05-22 21:53:00
6:53 PM,77.0,70.0,79,29.94,10.0,ESE,10.4,-,N/A,,Clear,120,2013-05-22 22:53:00
7:53 PM,75.9,70.0,82,29.94,10.0,SE,9.2,-,N/A,,Clear,130,2013-05-22 23:53:00
8:53 PM,75.0,71.1,87,29.96,10.0,SSE,6.9,-,N/A,,Clear,160,2013-05-23 00:53:00
9:53 PM,75.0,70.0,84,29.96,10.0,SSE,4.6,-,N/A,,Clear,150,2013-05-23 01:53:00
10:53 PM,75.0,70.0,84,29.96,10.0,SSE,5.8,-,N/A,,Clear,150,2013-05-23 02:53:00
11:53 PM,75.0,70.0,84,29.97,10.0,South,3.5,-,N/A,,Partly Cloudy,170,2013-05-23 03:53:00